Regional Weather Roundup
Issued by NWS

Home | Current Version | Previous Version | Graphics & Text | Print | Product List | Glossary On
Versions: 1 2 3 4 5 6 7 8 9 10 11 12 13 14 15 16 17 18 19 20 21 22 23 24 25 26 27 28 29 30 31 32 33 34 35 36 37 38 39 40 41 42 43 44 45 46 47 48 49 50
775
ASUS43 KLMK 251202
RWRKY
KENTUCKY REGIONAL WEATHER ROUNDUP
NATIONAL WEATHER SERVICE LOUISVILLE KY
700 AM EST SAT FEB 25 2017

NOTE "FAIR" INDICATES FEW OR NO CLOUDS BELOW 12,000 FEET
WITH NO SIGNIFICANT WEATHER AND/OR OBSTRUCTIONS TO VISIBILITY.

KYZ001>023-026-027-061>063-070>075-251300-
WESTERN AND SOUTH CENTRAL KENTUCKY

CITY           SKY/WX    TMP DP  RH WIND       PRES   REMARKS
PADUCAH        PTCLDY    32  18  56 NW9       29.98R WCI  24
HENDERSON      CLOUDY    34  19  55 W22G28    29.93R WCI  22
OWENSBORO      CLOUDY    35  23  61 NW16G29   29.91R WCI  25
HOPKINSVILLE   MOCLDY    38  25  60 NW20G30   29.91R WCI  28
BOWLING GREEN  PTCLDY    41  29  62 NW13G21   29.87R
GLASGOW        NOT AVBL
$$

KYZ024-025-028>034-038-045-046-053-251300-
NORTH CENTRAL KENTUCKY

CITY           SKY/WX    TMP DP  RH WIND       PRES   REMARKS
LOUISVILLE/SDF CLOUDY    41  26  55 W15G29    29.81R
LOUISVILLE/LOU CLOUDY    41  27  57 W17       29.80R
FORT KNOX      CLOUDY    38  28  68 W14G24    29.81R WCI  29
$$

KYZ035>037-039>044-047>052-055>060-089>105-251300-
NORTHEAST KENTUCKY

CITY           SKY/WX    TMP DP  RH WIND       PRES   REMARKS
LEXINGTON      MOCLDY    42  29  59 W9        29.76R
COVINGTON      CLOUDY    42  33  70 W14G26    29.70R
FRANKFORT      PTCLDY    42  28  57 SW8       29.75R
$$

KYZ054-064>069-076>088-106>120-251300-
SOUTHEAST KENTUCKY

CITY           SKY/WX    TMP DP  RH WIND       PRES   REMARKS
JACKSON        MOCLDY    45  43  93 VRB3      29.72R
LONDON         CLOUDY    46  44  93 SW5       29.75R
SOMERSET       MOCLDY    45  36  70 W9        29.79R
MIDDLESBORO    CLOUDY    49  43  80 CALM      29.76R
MONTICELLO     PTSUNNY   45  37  73 NW14      29.80R
$$





USA.gov is the U.S. government's official web portal to all federal, state and local government web resources and services.